Sparta, IL

7:38 AM CST on January 18, 2017 (GMT -0600)
Sparta Community-Hunter

Weather History for KSAR - March, 2014

Change the Weather History Date:

Friday, March 28, 2014

  Actual Average (KBLV) Record (KBLV)
Temperature  
Mean Temperature 47 °F -  
Max Temperature 55 °F 64 °F 88 °F (1985)
Min Temperature 39 °F 40 °F 20 °F (1966)
Degree Days  
Heating Degree Days 18    
Moisture  
Dew Point 39 °F    
Average Humidity 75    
Maximum Humidity 100    
Minimum Humidity 62    
Precipitation  
Precipitation 0.04 in - - ()
Sea Level Pressure  
Sea Level Pressure 29.98 in    
Wind  
Wind Speed 11 mph (NNW)    
Max Wind Speed 23 mph    
Max Gust Speed 31 mph    
Visibility 10 miles    
Events Rain , Thunderstorm    
Averages and records for this station are not official NWS values.
T = Trace of Precipitation, MM = Missing Value Source: NWS Daily Summary

Daily Weather History Graph

Daily Weather History Graph

Search for Another Location

Airport or City:

Trip Planner

Search our weather history database for the weather conditions in past years. The results will help you decide how hot, cold, wet, or windy it might be!

Date:

Astronomy

Mar. 28, 2014 Rise Set
Actual Time 6:49 AM CDT 7:18 PM CDT
Civil Twilight 6:23 AM CDT 7:44 PM CDT
Nautical Twilight 5:52 AM CDT 8:15 PM CDT
Astronomical Twilight 5:20 AM CDT 8:47 PM CDT
Moon 5:18 AM CDT (3/28) 5:16 PM CDT (3/28)
Length of Visible Light 13h 21m
Length of Day
12h 28m
Waning Crescent, 6% of the Moon is Illuminated
Mar 28
Waning Crescent
Mar 30
New
Apr 7
First Quarter
Apr 15
Full
Apr 22
Last Quarter

Hourly Weather History & Observations

Time (CDT) Temp. Windchill Dew Point Humidity Pressure Visibility Wind Dir Wind Speed Gust Speed Precip Events Conditions
12:15 AM 53.6 °F - 53.6 °F 100% 29.69 in 7.0 mi South 23.0 mph 31.1 mph N/A Rain Light Rain
12:35 AM 53.6 °F - 53.6 °F 100% 29.70 in 10.0 mi South 19.6 mph 29.9 mph 0.01 in Thunderstorm Drizzle
12:55 AM 53.6 °F - 50.0 °F 88% 29.71 in 10.0 mi SSW 11.5 mph 23.0 mph 0.01 in Thunderstorm Scattered Clouds
1:15 AM 53.6 °F - 50.0 °F 88% 29.72 in 10.0 mi SSW 9.2 mph - N/A   Mostly Cloudy
1:35 AM 55.4 °F - 50.0 °F 82% 29.73 in 10.0 mi WSW 16.1 mph 23.0 mph N/A   Overcast
1:55 AM 55.4 °F - 50.0 °F 82% 29.73 in 10.0 mi SW 13.8 mph 21.9 mph N/A   Overcast
2:15 AM 55.4 °F - 50.0 °F 82% 29.75 in 10.0 mi SW 12.7 mph 17.3 mph N/A   Overcast
2:35 AM 55.4 °F - 50.0 °F 82% 29.76 in 10.0 mi WSW 9.2 mph - N/A   Mostly Cloudy
2:55 AM 55.4 °F - 50.0 °F 82% 29.78 in 10.0 mi West 13.8 mph 18.4 mph N/A   Overcast
3:15 AM 51.8 °F - 44.6 °F 76% 29.80 in 10.0 mi WNW 12.7 mph 21.9 mph N/A   Mostly Cloudy
3:35 AM 50.0 °F - 41.0 °F 71% 29.81 in 10.0 mi West 12.7 mph 21.9 mph N/A   Scattered Clouds
3:55 AM 46.4 °F 40.7 °F 37.4 °F 71% 29.83 in 10.0 mi West 12.7 mph 27.6 mph N/A   Clear
4:15 AM 44.6 °F 39.7 °F 37.4 °F 76% 29.83 in 10.0 mi West 9.2 mph - N/A   Scattered Clouds
4:35 AM 44.6 °F 38.4 °F 37.4 °F 76% 29.84 in 10.0 mi West 12.7 mph 18.4 mph N/A   Clear
4:55 AM 42.8 °F 38.6 °F 35.6 °F 76% 29.86 in 10.0 mi West 6.9 mph - N/A   Clear
5:15 AM 41.0 °F 38.0 °F 35.6 °F 81% 29.87 in 10.0 mi WNW 4.6 mph - N/A   Clear
5:35 AM 41.0 °F 38.0 °F 35.6 °F 81% 29.88 in 10.0 mi WNW 4.6 mph - N/A   Clear
6:00 AM 41.0 °F 38.0 °F 35.6 °F 81% 29.90 in 10.0 mi West 4.6 mph - N/A   Clear
6:15 AM 41.0 °F 35.8 °F 35.6 °F 81% 29.91 in 10.0 mi West 8.1 mph - N/A   Clear
6:35 AM 39.2 °F 34.2 °F 33.8 °F 81% 29.93 in 10.0 mi West 6.9 mph - N/A   Clear
7:15 AM 39.2 °F 34.2 °F 33.8 °F 81% 29.95 in 10.0 mi West 6.9 mph - N/A   Clear
7:35 AM 41.0 °F 38.0 °F 35.6 °F 81% 29.97 in 10.0 mi West 4.6 mph - N/A   Mostly Cloudy
7:55 AM 41.0 °F 38.0 °F 35.6 °F 81% 29.98 in 10.0 mi WNW 4.6 mph - N/A   Overcast
8:15 AM 41.0 °F 37.1 °F 35.6 °F 81% 29.98 in 10.0 mi NW 5.8 mph - N/A   Overcast
8:35 AM 41.0 °F 37.1 °F 35.6 °F 81% 30.00 in 10.0 mi NNW 5.8 mph - N/A   Overcast
8:55 AM 42.8 °F 38.0 °F 35.6 °F 76% 30.00 in 10.0 mi NW 8.1 mph - N/A   Overcast
9:15 AM 41.0 °F 39.0 °F 35.6 °F 81% 30.02 in 10.0 mi NW 3.5 mph - N/A   Overcast
9:35 AM 42.8 °F 39.3 °F 35.6 °F 76% 30.04 in 10.0 mi NW 5.8 mph - N/A   Overcast
9:55 AM 42.8 °F 41.1 °F 33.8 °F 70% 30.05 in 10.0 mi North 3.5 mph - N/A   Overcast
10:15 AM 42.8 °F 40.1 °F 33.8 °F 70% 30.05 in 10.0 mi North 4.6 mph - N/A   Overcast
10:35 AM 42.8 °F 41.1 °F 35.6 °F 76% 30.06 in 10.0 mi North 3.5 mph - N/A   Overcast
10:55 AM 42.8 °F 40.1 °F 35.6 °F 76% 30.06 in 10.0 mi North 4.6 mph - N/A   Overcast
11:15 AM 42.8 °F 38.0 °F 35.6 °F 76% 30.07 in 10.0 mi North 8.1 mph - N/A   Overcast
11:35 AM 44.6 °F 42.2 °F 35.6 °F 71% 30.07 in 10.0 mi North 4.6 mph - N/A   Overcast
11:55 AM 44.6 °F 41.4 °F 35.6 °F 71% 30.07 in 10.0 mi NNW 5.8 mph - N/A   Overcast
12:15 PM 46.4 °F 41.9 °F 35.6 °F 66% 30.08 in 10.0 mi North 9.2 mph 16.1 mph N/A   Mostly Cloudy
12:35 PM 46.4 °F 41.1 °F 35.6 °F 66% 30.07 in 10.0 mi NNW 11.5 mph 18.4 mph N/A   Scattered Clouds
12:55 PM 46.4 °F 40.7 °F 35.6 °F 66% 30.07 in 10.0 mi NNW 12.7 mph 18.4 mph N/A   Clear
1:15 PM 46.4 °F 41.5 °F 35.6 °F 66% 30.07 in 10.0 mi North 10.4 mph 16.1 mph N/A   Clear
1:35 PM 46.4 °F 41.1 °F 37.4 °F 71% 30.06 in 10.0 mi North 11.5 mph - N/A   Clear
1:55 PM 46.4 °F 42.9 °F 35.6 °F 66% 30.05 in 10.0 mi North 6.9 mph - N/A   Clear
2:15 PM 46.4 °F 41.9 °F 35.6 °F 66% 30.05 in 10.0 mi North 9.2 mph - N/A   Clear
2:35 PM 48.2 °F - 37.4 °F 66% 30.04 in 10.0 mi NNE 11.5 mph - N/A   Clear
2:55 PM 50.0 °F - 37.4 °F 62% 30.03 in 10.0 mi NNW 9.2 mph - N/A   Clear
3:15 PM 50.0 °F - 37.4 °F 62% 30.03 in 10.0 mi North 8.1 mph - N/A   Clear
3:35 PM 50.0 °F - 37.4 °F 62% 30.01 in 10.0 mi North 10.4 mph - N/A   Clear
3:55 PM 50.0 °F - 37.4 °F 62% 30.02 in 10.0 mi North 4.6 mph - N/A   Clear
4:15 PM 51.8 °F - 39.2 °F 62% 30.01 in 10.0 mi NNE 4.6 mph - N/A   Clear
4:35 PM 51.8 °F - 41.0 °F 67% 30.01 in 10.0 mi North 6.9 mph - N/A   Clear
4:55 PM 50.0 °F - 39.2 °F 66% 30.02 in 10.0 mi NNE 8.1 mph - N/A   Scattered Clouds
5:15 PM 50.0 °F - 37.4 °F 62% 30.03 in 10.0 mi North 8.1 mph - N/A   Scattered Clouds
5:35 PM 50.0 °F - 37.4 °F 62% 30.04 in 10.0 mi North 8.1 mph - N/A   Clear
5:55 PM 48.2 °F - 37.4 °F 66% 30.04 in 10.0 mi North 9.2 mph - N/A   Clear
6:15 PM 48.2 °F - 37.4 °F 66% 30.06 in 10.0 mi North 9.2 mph - N/A   Clear
6:35 PM 46.4 °F 42.9 °F 37.4 °F 71% 30.07 in 10.0 mi North 6.9 mph - N/A   Clear
6:55 PM 46.4 °F 43.5 °F 37.4 °F 71% 30.07 in 10.0 mi North 5.8 mph - N/A   Clear
7:15 PM 46.4 °F 44.3 °F 37.4 °F 71% 30.08 in 10.0 mi North 4.6 mph - N/A   Clear
7:35 PM 46.4 °F 43.5 °F 37.4 °F 71% 30.08 in 10.0 mi North 5.8 mph - N/A   Clear
7:55 PM 46.4 °F 41.9 °F 37.4 °F 71% 30.08 in 10.0 mi North 9.2 mph - N/A   Scattered Clouds
8:15 PM 44.6 °F 40.7 °F 37.4 °F 76% 30.10 in 10.0 mi NNW 6.9 mph - N/A   Scattered Clouds
8:35 PM 44.6 °F 42.2 °F 37.4 °F 76% 30.09 in 10.0 mi North 4.6 mph - N/A   Clear
8:55 PM 44.6 °F 40.2 °F 37.4 °F 76% 30.09 in 10.0 mi North 8.1 mph - N/A   Scattered Clouds
9:15 PM 44.6 °F 40.2 °F 37.4 °F 76% 30.09 in 10.0 mi North 8.1 mph - N/A   Scattered Clouds
9:35 PM 42.8 °F 38.6 °F 37.4 °F 81% 30.08 in 10.0 mi North 6.9 mph - N/A   Scattered Clouds
9:55 PM 42.8 °F 38.0 °F 37.4 °F 81% 30.09 in 10.0 mi North 8.1 mph - N/A   Mostly Cloudy
10:15 PM 42.8 °F 36.2 °F 37.4 °F 81% 30.09 in 10.0 mi NNE 12.7 mph 16.1 mph N/A   Overcast
10:35 PM 42.8 °F 37.5 °F 37.4 °F 81% 30.10 in 10.0 mi North 9.2 mph 16.1 mph N/A   Overcast
10:55 PM 42.8 °F 39.3 °F 37.4 °F 81% 30.12 in 10.0 mi North 5.8 mph - N/A   Drizzle
11:15 PM 42.8 °F 40.1 °F 37.4 °F 81% 30.11 in 10.0 mi North 4.6 mph - N/A Rain Rain
11:35 PM 42.8 °F 38.6 °F 37.4 °F 81% 30.10 in 10.0 mi North 6.9 mph - 0.02 in Rain Light Rain
11:55 PM 41.0 °F 35.8 °F 37.4 °F 87% 30.10 in 10.0 mi NNW 8.1 mph - 0.03 in Rain Light Rain